Location: Sawmill Trailhead
(33.5800°N, 116.4497°W)
Time: 16:06:22
(UTC-08:00)

Amateur Radio Satellites - All Passes

Search period start: 03 March 2015 15:36
Search period end: 04 March 2015 15:36
Location: Sawmill Trailhead, 33.5800°N, 116.4497°W

Satellite Date Start Highest point End Downlink Frequencies (MHz)
Time Altitude Azimuth
MOZHAYETS 4 03 Mar 15:44:38 15:48:18 23° 94° (E) 15:52:05
JAS-2 03 Mar 15:45:02 15:50:24 76° 258° (WSW) 15:56:24 435.910
ISS 03 Mar 15:45:19 15:48:29 55° 227° (SW) 15:51:40 145.825
STARS 03 Mar 16:08:42 16:10:25 12° 293° (WNW) 16:11:53 437.465
BEESAT 3 03 Mar 16:08:51 16:12:51 61° 116° (ESE) 16:16:56 437.485
M-CUBED/EXP-1 PRIME 03 Mar 16:27:49 16:32:12 83° 287° (WNW) 16:36:52 437.505
AUBIESAT-1 03 Mar 16:28:54 16:33:18 90° 192° (SSW) 16:37:59 437.475
BEESAT 2 03 Mar 16:35:28 16:39:34 75° 299° (WNW) 16:43:43 435.950
AIST 2 03 Mar 16:38:54 16:42:48 38° 114° (ESE) 16:46:49 435.215
VERMONT LUNAR 03 Mar 16:57:23 17:00:48 55° 339° (NNW) 17:04:15 437.305
Cubesat XI-IV 03 Mar 16:58:32 17:03:42 52° 74° (ENE) 17:08:56 437.490
YUBILEINY 03 Mar 17:02:42 17:10:23 32° 287° (WNW) 17:17:54 435.215
CUTE-I 03 Mar 17:07:04 17:12:20 62° 75° (ENE) 17:17:41 437.470
PHONESAT 2.4 03 Mar 17:08:28 17:12:06 90° 271° (W) 17:15:46 2401.200-2431.200
AO-7 03 Mar 17:09:38 17:13:36 13° 271° (W) 17:16:49 29.400- 29.500
MOZHAYETS 4 03 Mar 17:21:35 17:25:31 27° 288° (WNW) 17:29:24
CUBESAT XI-V 03 Mar 17:46:10 17:50:28 35° 97° (E) 17:54:46 437.345
BEESAT 3 03 Mar 17:49:56 17:51:24 11° 313° (NW) 17:52:42 437.485
AIST 1 03 Mar 17:56:49 18:01:14 85° 83° (E) 18:05:37
O/OREOS (USA 219) 03 Mar 18:02:23 18:05:59 23° 62° (ENE) 18:09:41 437.305
PRISM 03 Mar 18:02:42 18:06:52 55° 100° (E) 18:11:01 437.425
STRAND 1 03 Mar 18:18:07 18:23:03 45° 99° (E) 18:27:57 437.568
AIST 2 03 Mar 18:18:40 18:21:37 17° 310° (NW) 18:24:27 435.215
VERMONT LUNAR 03 Mar 18:36:09 18:39:08 25° 356° (N) 18:42:07 437.305
Cubesat XI-IV 03 Mar 18:40:49 18:44:10 16° 269° (W) 18:47:16 437.490
CUTE 1.7 + AOD 2 03 Mar 18:42:09 18:42:21 10° 68° (ENE) 18:42:48 437.475
PHONESAT 2.4 03 Mar 18:47:34 18:50:50 30° 350° (N) 18:54:06 2401.200-2431.200
CUTE-I 03 Mar 18:50:21 18:52:56 13° 270° (W) 18:55:11 437.470
BRITE-PL 03 Mar 18:51:48 18:56:45 33° 73° (ENE) 19:01:38 437.365/2234.400
GOMX 1 03 Mar 18:51:53 18:55:48 22° 71° (ENE) 18:59:45 467.674
PCSat 03 Mar 19:00:11 19:04:44 29° 109° (ESE) 19:09:25 145.827
HO-68 03 Mar 19:07:51 19:14:27 43° 69° (ENE) 19:21:10 435.675
AAUSAT CUBESAT 2 03 Mar 19:19:05 19:21:42 17° 70° (ENE) 19:24:27 437.432
DOVE 4 03 Mar 19:20:47 19:25:05 28° 72° (ENE) 19:29:19 437.250
COMPASS 1 03 Mar 19:22:04 19:25:11 21° 72° (ENE) 19:28:25 437.405
CINEMA 3 03 Mar 19:22:14 19:24:32 14° 69° (ENE) 19:27:02 145.822/145.860
CUBESAT XI-V 03 Mar 19:24:20 19:27:42 19° 290° (WNW) 19:30:53 437.345
PRISM 03 Mar 19:41:09 19:41:56 10° 293° (WNW) 19:42:28 437.425
O/OREOS (USA 219) 03 Mar 19:41:31 19:45:25 27° 257° (WSW) 19:49:12 437.305
SEEDS 03 Mar 19:50:08 19:54:14 60° 77° (ENE) 19:58:22 437.485
CANX-2 03 Mar 19:55:12 19:59:26 85° 262° (W) 20:03:39 2200.000
STRAND 1 03 Mar 19:58:26 20:01:56 18° 292° (WNW) 20:05:14 437.568
FUNcube-1 03 Mar 20:07:42 20:09:58 14° 70° (ENE) 20:12:25 145.935
ZACube-1 03 Mar 20:09:11 20:11:39 15° 70° (ENE) 20:14:18 437.345
CUTE 1.7 + AOD 2 03 Mar 20:13:44 20:17:52 55° 260° (W) 20:22:00 437.475
UKube-1 03 Mar 20:14:23 20:17:05 17° 69° (ENE) 20:19:55 .
VERMONT LUNAR 03 Mar 20:14:24 20:17:36 32° 13° (NNE) 20:20:47 437.305
DELFI C3 03 Mar 20:18:38 20:22:08 30° 73° (ENE) 20:25:43 145.870
RS-15 03 Mar 20:20:16 20:21:56 11° 101° (E) 20:24:55 29.354- 29.394
PHONESAT 2.4 03 Mar 20:26:40 20:29:52 28° 7° (N) 20:33:05 2401.200-2431.200
GOMX 1 03 Mar 20:28:36 20:33:42 40° 262° (W) 20:38:35 467.674
UWE-3 03 Mar 20:29:31 20:33:31 33° 74° (ENE) 20:37:27 435.000/436.395/437.385
BRITE-PL 03 Mar 20:30:22 20:35:14 28° 265° (W) 20:39:52 437.365/2234.400
PCSat 03 Mar 20:43:17 20:48:05 31° 304° (WNW) 20:52:52 145.827
AAUSAT CUBESAT 2 03 Mar 20:53:28 20:57:09 30° 264° (W) 21:00:47 437.432
Oscar 11 03 Mar 20:54:17 20:58:34 70° 259° (W) 21:02:52 145.826/435.025
HO-68 03 Mar 20:56:09 21:02:20 30° 264° (W) 21:08:22 435.675
CINEMA 3 03 Mar 20:56:45 21:01:27 50° 261° (W) 21:05:57 145.822/145.860
COMPASS 1 03 Mar 20:57:25 21:00:49 23° 265° (W) 21:04:08 437.405
DOVE 4 03 Mar 20:58:20 21:02:47 28° 264° (W) 21:06:59 437.250
CUBEBUG 2 03 Mar 21:09:07 21:13:39 66° 259° (W) 21:18:02 437.445
GONETS M04 03 Mar 21:13:38 21:22:13 70° 93° (E) 21:30:51
ANTELSAT 03 Mar 21:17:31 21:19:18 13° 92° (E) 21:21:21 437.575/2403.000
DX 1 03 Mar 21:20:35 21:24:58 75° 258° (WSW) 21:29:22 434.975-435.025
50 SAT 03 Mar 21:20:46 21:24:23 34° 74° (ENE) 21:28:01 437.505
AISAT 03 Mar 21:29:45 21:34:06 51° 75° (ENE) 21:38:30 437.250
CUBEBUG 1 03 Mar 21:30:05 21:33:16 20° 70° (ENE) 21:36:36 437.445
HUMSAT D 03 Mar 21:36:32 21:40:45 87° 78° (ENE) 21:44:56 437.325/437.525
VELOX 1 03 Mar 21:38:34 21:43:00 64° 76° (ENE) 21:47:28 145.980
FUNcube-1 03 Mar 21:41:55 21:46:03 40° 262° (W) 21:50:06 145.935
ZACube-1 03 Mar 21:43:42 21:47:48 37° 262° (W) 21:51:48 437.345
NANOSAT C BR1 03 Mar 21:45:50 21:47:55 14° 92° (E) 21:50:12 145.865
UKube-1 03 Mar 21:48:59 21:52:59 35° 262° (W) 21:56:58 .
VERMONT LUNAR 03 Mar 21:52:12 21:55:39 66° 209° (SSW) 21:59:05 437.305
DELFI C3 03 Mar 21:54:56 21:57:27 15° 267° (W) 21:59:48 145.870
ESTCUBE 1 03 Mar 21:59:06 22:03:26 49° 74° (ENE) 22:07:50 437.505/2401.250
PHONESAT 2.4 03 Mar 22:05:02 22:08:40 75° 23° (NNE) 22:12:17 2401.200-2431.200
UWE-3 03 Mar 22:07:09 22:10:09 17° 267° (W) 22:12:57 435.000/436.395/437.385
UNISAT 6 03 Mar 22:13:18 22:17:34 62° 101° (E) 22:21:56 437.425
QB50P1 03 Mar 22:17:33 22:21:25 35° 98° (E) 22:25:17 145.935-145.965
BUGSAT 1 03 Mar 22:21:24 22:24:54 27° 96° (E) 22:28:24 437.445
QB50P2 03 Mar 22:21:47 22:25:45 40° 98° (E) 22:29:44 145.880/145.840
RS-15 03 Mar 22:22:03 22:32:51 72° 115° (ESE) 22:43:46 29.354- 29.394
DUCHIFAT 1 03 Mar 22:35:34 22:39:43 58° 101° (E) 22:43:50 145.980
DANDE 03 Mar 22:36:24 22:42:03 27° 96° (E) 22:46:48 436.750
TIGRISAT 03 Mar 22:37:46 22:42:01 67° 284° (WNW) 22:46:20 435.000
ANTELSAT 03 Mar 22:52:16 22:56:22 43° 286° (WNW) 23:00:30 437.575/2403.000
POPSAT HIP 1 03 Mar 22:57:10 23:01:22 73° 284° (WNW) 23:05:33 437.405
POLYITAN 1 03 Mar 22:57:20 23:01:33 71° 284° (WNW) 23:05:43 437.675
50 SAT 03 Mar 22:57:32 22:59:33 13° 268° (W) 23:01:21 437.505
CUSAT 1 03 Mar 22:57:49 23:04:11 51° 97° (E) 23:09:05 437.405
CUBEBUG 1 03 Mar 23:05:35 23:09:29 30° 263° (W) 23:13:22 437.445
AISAT 03 Mar 23:09:26 23:11:05 11° 269° (W) 23:12:26 437.250
GONETS M04 03 Mar 23:13:38 23:19:58 21° 292° (WNW) 23:25:52
NANOSAT C BR1 03 Mar 23:20:05 23:23:59 37° 287° (WNW) 23:27:51 145.865
TISAT 1 03 Mar 23:30:52 23:35:08 73° 259° (WSW) 23:39:26 437.305
SPROUT 03 Mar 23:31:51 23:36:09 64° 259° (W) 23:40:28 437.525
ESTCUBE 1 03 Mar 23:38:41 23:40:40 12° 269° (W) 23:42:22 437.505/2401.250
PHONESAT 2.4 03 Mar 23:44:13 23:46:52 19° 217° (SW) 23:49:26 2401.200-2431.200
SWISSCUBE 03 Mar 23:47:00 23:50:48 25° 70° (ENE) 23:54:44 437.505
QB50P1 03 Mar 23:54:28 23:57:04 16° 290° (WNW) 23:59:28 145.935-145.965
BEESAT 03 Mar 23:55:10 23:59:09 28° 71° (ENE) 00:03:15 436.000
BUGSAT 1 03 Mar 23:57:16 00:00:14 19° 290° (WNW) 00:03:02 437.445
SO-50 03 Mar 23:57:31 00:01:23 29° 112° (ESE) 00:05:25 436.795
QB50P2 03 Mar 23:59:09 00:01:22 14° 291° (WNW) 00:03:23 145.880/145.840
Oscar 19 04 Mar 00:02:23 00:04:33 13° 91° (E) 00:07:02 437.125/150
DANDE 04 Mar 00:18:54 00:25:22 37° 280° (W) 00:30:21 436.750
ITUPSAT 1 04 Mar 00:22:42 00:27:21 55° 74° (ENE) 00:32:03 437.325
BEESAT 3 04 Mar 00:33:30 00:35:16 13° 48° (NE) 00:37:12 437.485
RS-15 04 Mar 00:36:54 00:46:17 31° 317° (NW) 00:55:33 29.354- 29.394
CUSAT 1 04 Mar 00:42:58 00:47:00 17° 284° (WNW) 00:50:13 437.405
BEESAT 2 04 Mar 00:59:38 01:02:42 20° 52° (NE) 01:05:49 435.950
JUGNU 04 Mar 01:01:08 01:04:53 17° 170° (S) 01:08:42 437.505
SRMSAT 04 Mar 01:08:12 01:09:13 10° 163° (SSE) 01:10:22 437.500
KKS-1 04 Mar 01:20:04 01:24:15 41° 74° (ENE) 01:28:29 437.445
YUBILEINY 04 Mar 01:21:46 01:27:10 18° 66° (ENE) 01:33:04 435.215
Gurwin Techsat 1B 04 Mar 01:22:29 01:26:21 21° 93° (E) 01:30:23 435.225
STARS 04 Mar 01:23:33 01:27:17 28° 72° (ENE) 01:31:06 437.465
SWISSCUBE 04 Mar 01:24:30 01:28:36 27° 264° (W) 01:32:38 437.505
BEESAT 04 Mar 01:33:05 01:36:59 24° 265° (W) 01:40:49 436.000
SO-50 04 Mar 01:38:01 01:41:55 26° 308° (NW) 01:45:50 436.795
Oscar 19 04 Mar 01:39:18 01:44:21 58° 286° (WNW) 01:49:22 437.125/150
ITAMSAT 1 04 Mar 01:40:57 01:45:54 44° 99° (E) 01:50:51 435.822/435.867
ITUPSAT 1 04 Mar 02:03:40 02:05:40 12° 270° (W) 02:07:21 437.325
BEESAT 3 04 Mar 02:09:43 02:13:44 53° 245° (WSW) 02:17:40 437.485
BEESAT 2 04 Mar 02:37:17 02:40:56 30° 247° (WSW) 02:44:28 435.950
AIST 2 04 Mar 02:42:37 02:46:53 81° 243° (WSW) 02:51:02 435.215
MOZHAYETS 4 04 Mar 02:44:08 02:46:28 14° 69° (ENE) 02:49:02
JUGNU 04 Mar 02:48:55 02:53:17 21° 180° (S) 02:57:41 437.505
SRMSAT 04 Mar 02:53:42 02:57:45 19° 172° (S) 03:01:50 437.500
JAS-2 04 Mar 02:58:08 03:03:47 23° 91° (E) 03:09:52 435.910
KKS-1 04 Mar 02:58:34 03:01:08 14° 268° (W) 03:03:29 437.445
STARS 04 Mar 03:00:21 03:03:46 21° 265° (W) 03:07:04 437.465
Gurwin Techsat 1B 04 Mar 03:01:33 03:06:30 39° 288° (WNW) 03:11:22 435.225
RS-15 04 Mar 03:02:04 03:04:07 10° 351° (N) 03:05:55 29.354- 29.394
M-CUBED/EXP-1 PRIME 04 Mar 03:14:12 03:17:26 63° 72° (ENE) 03:20:48 437.505
AUBIESAT-1 04 Mar 03:14:50 03:18:03 55° 71° (ENE) 03:21:24 437.475
YUBILEINY 04 Mar 03:16:17 03:25:08 80° 266° (W) 03:33:56 435.215
AO-7 04 Mar 03:17:46 03:25:27 42° 99° (E) 03:33:13 29.400- 29.500
HORYU 2 04 Mar 03:18:45 03:23:14 89° 126° (SE) 03:27:43 437.375
ITAMSAT 1 04 Mar 03:21:26 03:25:07 19° 292° (WNW) 03:28:36 435.822/435.867
PCSat 04 Mar 03:53:47 03:55:31 12° 46° (NE) 03:57:33 145.827
MOZHAYETS 4 04 Mar 04:19:01 04:23:23 45° 262° (W) 04:27:45
JUGNU 04 Mar 04:37:57 04:41:41 17° 190° (S) 04:45:24 437.505
JAS-2 04 Mar 04:41:43 04:49:14 65° 286° (WNW) 04:56:58 435.910
SRMSAT 04 Mar 04:41:54 04:46:19 21° 182° (S) 04:50:44 437.500
CUBESAT XI-V 04 Mar 04:46:14 04:49:48 23° 71° (ENE) 04:53:31 437.345
PRISM 04 Mar 04:49:52 04:53:08 24° 71° (ENE) 04:56:32 437.425
AO-7 04 Mar 05:10:41 05:18:10 38° 295° (WNW) 05:25:29 29.400- 29.500
RS-15 04 Mar 05:17:00 05:23:29 17° 28° (NNE) 05:30:39 29.354- 29.394
YUBILEINY 04 Mar 05:17:47 05:20:50 12° 280° (W) 05:23:00 435.215
Cubesat XI-IV 04 Mar 05:20:23 05:24:58 29° 96° (E) 05:29:36 437.490
CUTE-I 04 Mar 05:28:41 05:33:31 34° 97° (E) 05:38:22 437.470
STRAND 1 04 Mar 05:30:03 05:34:52 43° 73° (ENE) 05:39:45 437.568
PCSat 04 Mar 05:34:21 05:39:49 89° 64° (ENE) 05:45:14 145.827
AIST 1 04 Mar 06:21:57 06:26:13 61° 94° (E) 06:30:34
CUBESAT XI-V 04 Mar 06:23:01 06:27:07 29° 264° (W) 06:31:11 437.345
PRISM 04 Mar 06:25:22 06:28:37 21° 265° (W) 06:31:47 437.425
SRMSAT 04 Mar 06:31:21 06:34:52 16° 192° (SSW) 06:38:19 437.500
JAS-2 04 Mar 06:31:28 06:33:14 11° 300° (WNW) 06:34:22 435.910
ISS 04 Mar 06:45:50 06:48:36 27° 131° (SE) 06:51:26 145.825
Cubesat XI-IV 04 Mar 07:00:24 07:05:02 29° 290° (WNW) 07:09:32 437.490
CUTE-I 04 Mar 07:09:06 07:13:27 25° 291° (WNW) 07:17:38 437.470
STRAND 1 04 Mar 07:10:46 07:14:19 18° 267° (W) 07:17:39 437.568
RS-15 04 Mar 07:27:59 07:39:14 58° 55° (NE) 07:51:03 29.354- 29.394
GONETS M04 04 Mar 07:29:38 07:36:43 28° 71° (ENE) 07:44:07
SEEDS 04 Mar 07:40:15 07:42:22 14° 92° (E) 07:44:42 437.485
CANX-2 04 Mar 07:45:21 07:48:38 22° 95° (E) 07:52:01 2200.000
CUTE 1.7 + AOD 2 04 Mar 08:03:15 08:07:04 32° 97° (E) 08:10:56 437.475
O/OREOS (USA 219) 04 Mar 08:09:45 08:14:11 55° 107° (ESE) 08:18:41 437.305
ISS 04 Mar 08:22:27 08:25:02 22° 325° (NW) 08:27:37 145.825
HO-68 04 Mar 08:26:50 08:33:59 66° 102° (ESE) 08:41:08 435.675
SO-50 04 Mar 08:34:06 08:35:58 12° 44° (NE) 08:38:03 436.795
GOMX 1 04 Mar 08:35:03 08:39:21 88° 89° (E) 08:43:30 467.674
BRITE-PL 04 Mar 08:39:35 08:43:53 50° 286° (WNW) 08:47:56 437.365/2234.400
AAUSAT CUBESAT 2 04 Mar 08:40:09 08:44:15 54° 99° (E) 08:48:22 437.432
COMPASS 1 04 Mar 08:44:06 08:48:19 72° 101° (ESE) 08:52:31 437.405
Oscar 11 04 Mar 08:46:06 08:49:48 28° 96° (E) 08:53:33 145.826/435.025
CINEMA 3 04 Mar 08:55:58 09:00:00 49° 99° (E) 09:04:03 145.822/145.860
DOVE 4 04 Mar 09:01:21 09:05:32 66° 284° (WNW) 09:09:37 437.250
CUBEBUG 2 04 Mar 09:04:42 09:08:26 32° 97° (E) 09:12:13 437.445
QB50P1 04 Mar 09:07:36 09:10:18 17° 70° (ENE) 09:13:09 145.935-145.965
UNISAT 6 04 Mar 09:08:47 09:12:44 33° 73° (ENE) 09:16:40 437.425
BUGSAT 1 04 Mar 09:09:21 09:11:08 13° 69° (ENE) 09:13:09 437.445
QB50P2 04 Mar 09:11:46 09:14:46 19° 71° (ENE) 09:17:55 145.880/145.840
DX 1 04 Mar 09:13:39 09:17:14 25° 96° (E) 09:20:52 434.975-435.025
SEEDS 04 Mar 09:14:27 09:18:23 37° 286° (WNW) 09:22:18 437.485
CANX-2 04 Mar 09:21:02 09:24:32 24° 288° (WNW) 09:27:57 2200.000
DUCHIFAT 1 04 Mar 09:24:38 09:28:10 26° 72° (ENE) 09:31:46 145.980
GONETS M04 04 Mar 09:25:33 09:34:02 54° 269° (W) 09:42:27
HUMSAT D 04 Mar 09:25:53 09:28:42 18° 94° (E) 09:31:39 437.325/437.525
AISAT 04 Mar 09:26:34 09:28:40 14° 92° (E) 09:30:59 437.250
TIGRISAT 04 Mar 09:32:31 09:36:53 64° 76° (ENE) 09:41:11 435.000
FUNcube-1 04 Mar 09:34:14 09:38:16 48° 100° (E) 09:42:19 145.935
VELOX 1 04 Mar 09:34:38 09:37:23 17° 93° (E) 09:40:18 145.980
ZACube-1 04 Mar 09:36:08 09:40:12 52° 100° (E) 09:44:18 437.345
DELFI C3 04 Mar 09:37:00 09:41:06 85° 283° (WNW) 09:45:12 145.870
CUTE 1.7 + AOD 2 04 Mar 09:39:58 09:42:47 17° 290° (WNW) 09:45:27 437.475
UKube-1 04 Mar 09:40:21 09:44:35 50° 100° (E) 09:48:48 .
RS-15 04 Mar 09:41:03 09:51:22 37° 252° (WSW) 10:01:42 29.354- 29.394
POPSAT HIP 1 04 Mar 09:45:58 09:50:05 48° 75° (ENE) 09:54:15 437.405
POLYITAN 1 04 Mar 09:46:23 09:50:32 50° 75° (ENE) 09:54:43 437.675
ANTELSAT 04 Mar 09:47:06 09:51:32 82° 258° (WSW) 09:55:52 437.575/2403.000
O/OREOS (USA 219) 04 Mar 09:52:00 09:54:04 12° 303° (WNW) 09:55:53 437.305
ESTCUBE 1 04 Mar 09:57:30 09:59:52 14° 92° (E) 10:02:27 437.505/2401.250
UWE-3 04 Mar 09:59:29 10:03:36 61° 284° (WNW) 10:07:43 435.000/436.395/437.385
NANOSAT C BR1 04 Mar 10:08:14 10:12:31 88° 257° (WSW) 10:16:49 145.865
SO-50 04 Mar 10:12:16 10:17:14 85° 242° (WSW) 10:22:08 436.795
HO-68 04 Mar 10:16:01 10:21:11 21° 297° (WNW) 10:26:04 435.675
AAUSAT CUBESAT 2 04 Mar 10:18:51 10:19:30 10° 292° (WNW) 10:19:54 437.432
Oscar 11 04 Mar 10:22:35 10:25:50 20° 289° (WNW) 10:28:57 145.826/435.025
CINEMA 3 04 Mar 10:35:57 10:36:52 10° 292° (WNW) 10:37:32 145.822/145.860
50 SAT 04 Mar 10:37:39 10:41:37 77° 283° (WNW) 10:45:34 437.505
QB50P1 04 Mar 10:42:04 10:45:58 33° 263° (W) 10:49:50 145.935-145.965
BUGSAT 1 04 Mar 10:42:11 10:46:17 45° 261° (W) 10:50:24 437.445
CUBEBUG 2 04 Mar 10:42:19 10:44:56 16° 290° (WNW) 10:47:24 437.445
UNISAT 6 04 Mar 10:46:43 10:49:39 17° 267° (W) 10:52:22 437.425
QB50P2 04 Mar 10:46:47 10:50:32 28° 264° (W) 10:54:14 145.880/145.840
DX 1 04 Mar 10:49:56 10:53:24 23° 289° (WNW) 10:56:44 434.975-435.025
CUBEBUG 1 04 Mar 10:58:02 11:02:25 69° 101° (E) 11:06:45 437.445
DUCHIFAT 1 04 Mar 11:00:43 11:04:01 21° 266° (W) 11:07:11 145.980
HUMSAT D 04 Mar 11:01:00 11:04:32 27° 287° (WNW) 11:07:58 437.325/437.525
AISAT 04 Mar 11:01:20 11:05:33 42° 286° (WNW) 11:09:41 437.250
DANDE 04 Mar 11:05:58 11:08:24 36° 264° (W) 11:10:57 436.750
VELOX 1 04 Mar 11:10:04 11:14:07 35° 287° (WNW) 11:18:06 145.980
FUNcube-1 04 Mar 11:12:59 11:14:16 11° 291° (WNW) 11:15:17 145.935
ZACube-1 04 Mar 11:15:35 11:16:13 10° 292° (WNW) 11:16:35 437.345
Oscar 19 04 Mar 11:15:50 11:18:13 14° 66° (ENE) 11:20:52 437.125/150
UKube-1 04 Mar 11:18:39 11:20:21 12° 293° (WNW) 11:21:48 .
TISAT 1 04 Mar 11:20:25 11:23:46 23° 95° (E) 11:27:10 437.305
SPROUT 04 Mar 11:23:05 11:26:48 29° 96° (E) 11:30:33 437.525
POPSAT HIP 1 04 Mar 11:24:58 11:26:19 11° 269° (W) 11:27:23 437.405
CUSAT 1 04 Mar 11:25:34 11:26:46 12° 265° (W) 11:27:55 437.405
POLYITAN 1 04 Mar 11:25:45 11:26:49 11° 270° (W) 11:27:36 437.675
ESTCUBE 1 04 Mar 11:32:41 11:37:00 42° 286° (WNW) 11:41:15 437.505/2401.250
ITUPSAT 1 04 Mar 12:28:20 12:31:47 20° 94° (E) 12:35:23 437.325
Gurwin Techsat 1B 04 Mar 12:39:49 12:43:51 23° 69° (ENE) 12:48:02 435.225
Oscar 19 04 Mar 12:52:03 12:57:08 60° 260° (W) 13:02:13 437.125/150
ITAMSAT 1 04 Mar 12:54:56 12:59:51 44° 73° (ENE) 13:04:50 435.822/435.867
TISAT 1 04 Mar 12:56:10 12:59:30 22° 289° (WNW) 13:02:43 437.305
SPROUT 04 Mar 12:59:39 13:02:44 19° 290° (WNW) 13:05:41 437.525
KKS-1 04 Mar 13:18:02 13:18:52 11° 90° (E) 13:20:01 437.445
SWISSCUBE 04 Mar 13:28:06 13:32:56 78° 283° (WNW) 13:37:43 437.505
BEESAT 04 Mar 13:36:22 13:41:09 69° 285° (WNW) 13:45:55 436.000
ITUPSAT 1 04 Mar 14:05:25 14:09:47 34° 288° (WNW) 14:14:05 437.325
AO-7 04 Mar 14:12:24 14:19:57 41° 66° (ENE) 14:27:38 29.400- 29.500
HORYU 2 04 Mar 14:13:13 14:17:29 49° 74° (ENE) 14:21:46 437.375
YUBILEINY 04 Mar 14:17:54 14:24:11 24° 85° (E) 14:30:52 435.215
Gurwin Techsat 1B 04 Mar 14:18:45 14:23:39 36° 263° (W) 14:28:31 435.225
VERMONT LUNAR 04 Mar 14:35:01 14:37:29 19° 144° (SE) 14:40:01 437.305
ITAMSAT 1 04 Mar 14:36:01 14:39:37 18° 267° (W) 14:42:59 435.822/435.867
JAS-2 04 Mar 14:50:41 14:55:34 35° 69° (ENE) 15:01:01 435.910
KKS-1 04 Mar 14:51:35 14:55:55 53° 285° (WNW) 15:00:13 437.445
ISS 04 Mar 14:52:20 14:55:32 62° 41° (NE) 14:58:45 145.825
STARS 04 Mar 14:53:02 14:57:25 83° 283° (WNW) 15:01:47 437.465
PHONESAT 2.4 04 Mar 14:54:48 14:56:19 12° 141° (SE) 14:57:57 2401.200-2431.200
